Regional Weather Roundup
Issued by NWS

Home | Current Version | Previous Version | Graphics & Text | Print | Product List | Glossary On
Versions: 1 2 3 4 5 6 7 8 9 10 11 12 13 14 15 16 17 18 19 20 21 22 23 24 25 26 27 28 29 30 31 32 33 34 35 36 37 38 39 40 41 42 43 44 45 46 47 48 49 50
000
ASUS43 KFSD 011802
RWRSD

WEATHER ROUNDUP FOR SOUTH DAKOTA
NATIONAL WEATHER SERVICE SIOUX FALLS SD
100 PM CDT SAT OCT 01 2016

NOTE: "FAIR" INDICATES FEW OR NO CLOUDS BELOW 12,000 FEET WITH NO
SIGNIFICANT WEATHER AND/OR OBSTRUCTIONS TO VISIBILITY.


SDZ001>005-009-010-012>017-011900-
NORTHWEST AND NORTH CENTRAL SOUTH DAKOTA

CITY           SKY/WX    TMP DP  RH WIND       PRES   REMARKS
BUFFALO          N/A     78  52  40 E6        29.91F
FAITH            N/A     75  50  41 SE12      29.97F
MOBRIDGE       SUNNY     71  46  40 SE18      29.98F
$$

SDZ012>016-024>037-041>051-057-063-072>074-011900-
SOUTHWEST AND SOUTH CENTRAL SOUTH DAKOTA

CITY           SKY/WX    TMP DP  RH WIND       PRES   REMARKS
RAPID CTY ARPT SUNNY     78  50  37 VRB3      29.98F
PIERRE         MOSUNNY   70  47  43 SE17      29.99F
CUSTER         PTSUNNY   72  45  37 VRB6      30.09F
ELLSWORTH AFB  SUNNY     77  50  39 E6        29.98F
PHILIP         SUNNY     78  50  37 SE6       29.96F
PINE RIDGE     SUNNY     76  49  38 VRB7      30.00F
SPEARFISH      FAIR      77  50  38 NE13      30.01F
WINNER         FAIR      74  49  41 S15G24    30.03F
$$

SDZ004>011-016>023-039-040-011900-
NORTHEAST SOUTH DAKOTA

CITY           SKY/WX    TMP DP  RH WIND       PRES   REMARKS
ABERDEEN       MOSUNNY   73  46  38 S16       30.07F
WATERTOWN      PTSUNNY   71  54  54 S13G20    30.11F
SISSETON         N/A     73  53  49 S12G18    30.10F
$$

SDZ017-020-022-023-036>040-048>070-011900-
SOUTHEAST SOUTH DAKOTA

CITY           SKY/WX    TMP DP  RH WIND       PRES   REMARKS
SIOUX FALLS    CLOUDY    69  56  62 S9        30.12F
HURON          SUNNY     72  48  42 S16G24    30.08F
CHAMBERLAIN    SUNNY     76  50  38 SE14      30.04F
MITCHELL       SUNNY     73  50  44 S15       30.09F
YANKTON        MOSUNNY   70  54  56 E8        30.09F
$$

ABBREVIATIONS USED IN REMARKS
   TC - TEMPERATURE IN CELSIUS
  WCI - WIND CHILL INDEX
   HX - HEAT INDEX
  VSB - VISIBILITY




USA.gov is the U.S. government's official web portal to all federal, state and local government web resources and services.